TimeCDT,TemperatureF,Dew PointF,Humidity,Sea Level PressureIn,VisibilityMPH,Wind Direction,Wind SpeedMPH,Gust SpeedMPH,PrecipitationIn,Events,Conditions,WindDirDegrees,DateUTC
12:53 AM,45.0,37.0,74,29.79,10.0,NNW,6.9,-,N/A,,Clear,340,2012-10-14 05:53:00
1:53 AM,42.1,36.0,79,29.80,10.0,NNW,6.9,-,N/A,,Clear,330,2012-10-14 06:53:00
2:53 AM,39.0,34.0,82,29.81,10.0,NNW,5.8,-,N/A,,Clear,330,2012-10-14 07:53:00
3:53 AM,41.0,36.0,82,29.82,10.0,NNW,9.2,-,N/A,,Clear,340,2012-10-14 08:53:00
4:22 AM,41.0,35.6,81,29.80,10.0,North,9.2,-,N/A,,Scattered Clouds,360,2012-10-14 09:22:00
4:33 AM,42.8,37.4,81,29.81,10.0,NNE,9.2,-,N/A,,Mostly Cloudy,20,2012-10-14 09:33:00
4:53 AM,42.1,39.9,92,29.83,4.0,North,5.8,-,N/A,,Overcast,10,2012-10-14 09:53:00
4:58 AM,42.8,39.2,87,29.82,2.5,North,5.8,-,N/A,,Overcast,360,2012-10-14 09:58:00
5:07 AM,42.8,39.2,87,29.81,1.5,NNW,6.9,-,N/A,,Overcast,340,2012-10-14 10:07:00
5:22 AM,42.8,41.0,93,29.81,1.0,North,6.9,-,N/A,,Overcast,350,2012-10-14 10:22:00
5:31 AM,42.8,41.0,93,29.81,0.8,North,8.1,-,N/A,,Mist,360,2012-10-14 10:31:00
5:40 AM,41.0,39.2,93,29.81,1.5,North,8.1,-,N/A,,Overcast,350,2012-10-14 10:40:00
5:43 AM,41.0,39.2,93,29.82,3.0,North,9.2,-,N/A,,Overcast,350,2012-10-14 10:43:00
5:53 AM,41.0,39.9,96,29.84,3.0,NNW,9.2,-,N/A,,Overcast,340,2012-10-14 10:53:00
6:53 AM,42.1,39.9,92,29.86,4.0,NNW,9.2,-,N/A,,Overcast,340,2012-10-14 11:53:00
7:15 AM,42.8,39.2,87,29.84,5.0,North,8.1,-,N/A,,Overcast,350,2012-10-14 12:15:00
7:53 AM,43.0,39.9,89,29.86,9.0,NNW,6.9,-,N/A,,Overcast,330,2012-10-14 12:53:00
8:22 AM,42.8,39.2,87,29.85,9.0,NW,9.2,-,N/A,,Overcast,320,2012-10-14 13:22:00
8:41 AM,42.8,39.2,87,29.85,7.0,NW,9.2,-,N/A,,Overcast,320,2012-10-14 13:41:00
8:53 AM,42.1,39.0,89,29.88,6.0,NW,10.4,-,N/A,,Overcast,320,2012-10-14 13:53:00
9:00 AM,42.8,39.2,87,29.85,6.0,NW,10.4,-,N/A,,Overcast,320,2012-10-14 14:00:00
9:38 AM,42.8,35.6,76,29.85,10.0,North,10.4,-,N/A,,Overcast,350,2012-10-14 14:38:00
9:53 AM,43.0,36.0,76,29.88,10.0,North,8.1,-,N/A,,Overcast,350,2012-10-14 14:53:00
10:29 AM,44.6,35.6,71,29.87,10.0,NNW,12.7,-,N/A,,Overcast,340,2012-10-14 15:29:00
10:53 AM,46.0,36.0,68,29.90,10.0,North,8.1,-,N/A,,Overcast,350,2012-10-14 15:53:00
11:53 AM,48.9,37.9,66,29.90,10.0,NNW,10.4,-,N/A,,Overcast,340,2012-10-14 16:53:00
12:45 PM,50.0,39.2,66,29.87,10.0,North,9.2,17.3,N/A,,Mostly Cloudy,350,2012-10-14 17:45:00
12:53 PM,52.0,39.9,63,29.90,10.0,North,11.5,-,N/A,,Scattered Clouds,350,2012-10-14 17:53:00
1:53 PM,54.0,39.0,57,29.89,10.0,NNW,9.2,-,N/A,,Clear,340,2012-10-14 18:53:00
3:53 PM,55.9,37.0,49,29.89,10.0,NNW,11.5,-,N/A,,Clear,340,2012-10-14 20:53:00
4:53 PM,55.0,34.0,45,29.90,10.0,NNW,15.0,-,N/A,,Clear,330,2012-10-14 21:53:00
5:53 PM,53.1,32.0,45,29.91,10.0,NW,11.5,-,N/A,,Clear,320,2012-10-14 22:53:00
6:53 PM,46.9,35.1,63,29.92,10.0,NW,6.9,-,N/A,,Clear,320,2012-10-14 23:53:00
7:53 PM,46.0,36.0,68,29.94,10.0,NW,4.6,-,N/A,,Clear,320,2012-10-15 00:53:00
8:53 PM,43.0,35.1,74,29.95,10.0,NW,5.8,-,N/A,,Clear,320,2012-10-15 01:53:00
9:53 PM,44.1,35.1,71,29.95,10.0,NW,6.9,-,N/A,,Clear,320,2012-10-15 02:53:00
10:53 PM,41.0,34.0,76,29.95,10.0,NNW,5.8,-,N/A,,Clear,340,2012-10-15 03:53:00
11:53 PM,39.0,34.0,82,29.96,10.0,NNW,4.6,-,N/A,,Clear,330,2012-10-15 04:53:00